| time (UTC) | temp C | wind direction | speed KPH | gust KPH | rain 1hr cm | rain 24hr cm | rain mn cm | humidity % | barometer mb |
| 20260510203513 | 19 | 101 | 3.2 | 11.3 | 0.00 | 0.00 | 0.00 | 37 | 1016.7 |
| 20260510203028 | 19 | 265 | 4.8 | 16.1 | 0.00 | 0.00 | 0.00 | 36 | 1016.7 |
| 20260510202509 | 19 | 238 | 4.8 | 16.1 | 0.00 | 0.00 | 0.00 | 38 | 1016.8 |
| 20260510202011 | 19 | 328 | 3.2 | 14.5 | 0.00 | 0.00 | 0.00 | 37 | 1016.7 |
| 20260510201527 | 19 | 75 | 4.8 | 14.5 | 0.00 | 0.00 | 0.00 | 38 | 1016.9 |
| 20260510201013 | 18 | 303 | 3.2 | 12.9 | 0.00 | 0.00 | 0.00 | 38 | 1016.9 |
| 20260510200511 | 18 | 108 | 4.8 | 16.1 | 0.00 | 0.00 | 0.00 | 38 | 1016.8 |
| 20260510200027 | 18 | 309 | 1.6 | 16.1 | 0.00 | 0.00 | 0.00 | 39 | 1016.9 |
| 20260510195512 | 18 | 286 | 6.4 | 14.5 | 0.00 | 0.00 | 0.00 | 39 | 1016.8 |
| 20260510195009 | 18 | 25 | 4.8 | 14.5 | 0.00 | 0.00 | 0.00 | 41 | 1017.0 |
| 20260510194538 | 18 | 300 | 3.2 | 14.5 | 0.00 | 0.00 | 0.00 | 39 | 1017.0 |
| 20260510194012 | 18 | 89 | 4.8 | 14.5 | 0.00 | 0.00 | 0.00 | 38 | 1017.0 |
| 20260510193512 | 19 | 286 | 4.8 | 16.1 | 0.00 | 0.00 | 0.00 | 39 | 1017.0 |
| 20260510193030 | 19 | 1 | 6.4 | 16.1 | 0.00 | 0.00 | 0.00 | 39 | 1017.0 |
| 20260510192515 | 19 | 272 | 4.8 | 16.1 | 0.00 | 0.00 | 0.00 | 38 | 1017.0 |
| 20260510192011 | 18 | 238 | 6.4 | 12.9 | 0.00 | 0.00 | 0.00 | 40 | 1017.2 |
| 20260510191532 | 18 | 304 | 4.8 | 11.3 | 0.00 | 0.00 | 0.00 | 41 | 1017.1 |
| 20260510191012 | 18 | 92 | 4.8 | 17.7 | 0.00 | 0.00 | 0.00 | 40 | 1017.0 |
| 20260510190512 | 18 | 309 | 1.6 | 17.7 | 0.00 | 0.00 | 0.00 | 38 | 1017.2 |
| 20260510190043 | 18 | 39 | 6.4 | 17.7 | 0.00 | 0.00 | 0.00 | 39 | 1017.2 |
| 20260510185511 | 19 | 316 | 6.4 | 14.5 | 0.00 | 0.00 | 0.00 | 39 | 1017.0 |
| 20260510185012 | 19 | 295 | 1.6 | 14.5 | 0.00 | 0.00 | 0.00 | 39 | 1016.9 |
| 20260510184527 | 18 | 295 | 8.0 | 14.5 | 0.00 | 0.00 | 0.00 | 38 | 1016.9 |
| 20260510184012 | 18 | 357 | 3.2 | 16.1 | 0.00 | 0.00 | 0.00 | 40 | 1017.0 |
| 20260510183518 | 18 | 26 | 8.0 | 16.1 | 0.00 | 0.00 | 0.00 | 41 | 1017.0 |
| 20260510183030 | 18 | 262 | 3.2 | 16.1 | 0.00 | 0.00 | 0.00 | 38 | 1016.8 |
| 20260510182516 | 18 | 324 | 8.0 | 16.1 | 0.00 | 0.00 | 0.00 | 38 | 1016.8 |
| 20260510182009 | 18 | 293 | 6.4 | 12.9 | 0.00 | 0.00 | 0.00 | 38 | 1016.7 |
| 20260510181528 | 18 | 307 | 6.4 | 11.3 | 0.00 | 0.00 | 0.00 | 38 | 1016.8 |
| 20260510181013 | 18 | 282 | 1.6 | 16.1 | 0.00 | 0.00 | 0.00 | 38 | 1016.9 |
| 20260510180512 | 18 | 240 | 8.0 | 16.1 | 0.00 | 0.00 | 0.00 | 37 | 1017.1 |
| 20260510180031 | 18 | 330 | 3.2 | 16.1 | 0.00 | 0.00 | 0.00 | 38 | 1017.0 |
| 20260510175514 | 18 | 340 | 8.0 | 16.1 | 0.00 | 0.00 | 0.00 | 38 | 1017.0 |
| 20260510175009 | 18 | 0 | 4.8 | 16.1 | 0.00 | 0.00 | 0.00 | 38 | 1016.6 |
| 20260510174530 | 18 | 318 | 4.8 | 16.1 | 0.00 | 0.00 | 0.00 | 39 | 1016.5 |
| 20260510174009 | 18 | 309 | 3.2 | 14.5 | 0.00 | 0.00 | 0.00 | 38 | 1016.5 |
| 20260510173509 | 18 | 259 | 6.4 | 14.5 | 0.00 | 0.00 | 0.00 | 36 | 1016.6 |
| 20260510173028 | 19 | 0 | 3.2 | 9.7 | 0.00 | 0.00 | 0.00 | 37 | 1016.6 |
| 20260510172510 | 18 | 255 | 1.6 | 12.9 | 0.00 | 0.00 | 0.00 | 37 | 1016.8 |
| 20260510172010 | 18 | 0 | 3.2 | 16.1 | 0.00 | 0.00 | 0.00 | 36 | 1016.7 |
| 20260510171528 | 18 | 118 | 4.8 | 17.7 | 0.00 | 0.00 | 0.00 | 38 | 1016.7 |
| 20260510171012 | 18 | 123 | 3.2 | 17.7 | 0.00 | 0.00 | 0.00 | 42 | 1016.7 |
| 20260510170518 | 18 | 83 | 3.2 | 12.9 | 0.00 | 0.00 | 0.00 | 36 | 1016.6 |
| 20260510170031 | 18 | 110 | 3.2 | 11.3 | 0.00 | 0.00 | 0.00 | 41 | 1016.6 |
| 20260510165511 | 18 | 325 | 4.8 | 11.3 | 0.00 | 0.00 | 0.00 | 40 | 1016.8 |
| 20260510165010 | 17 | 110 | 6.4 | 17.7 | 0.00 | 0.00 | 0.00 | 41 | 1016.8 |
| 20260510164529 | 17 | 286 | 6.4 | 17.7 | 0.00 | 0.00 | 0.00 | 39 | 1016.8 |
| 20260510164009 | 17 | 313 | 4.8 | 12.9 | 0.00 | 0.00 | 0.00 | 39 | 1016.9 |
| 20260510163509 | 18 | 272 | 4.8 | 14.5 | 0.00 | 0.00 | 0.00 | 42 | 1016.9 |
| 20260510163038 | 18 | 296 | 4.8 | 14.5 | 0.00 | 0.00 | 0.00 | 40 | 1016.8 |
| 20260510162513 | 18 | 128 | 3.2 | 11.3 | 0.00 | 0.00 | 0.00 | 42 | 1016.8 |
| 20260510162008 | 18 | 75 | 6.4 | 11.3 | 0.00 | 0.00 | 0.00 | 39 | 1016.9 |
| 20260510161534 | 18 | 8 | 3.2 | 16.1 | 0.00 | 0.00 | 0.00 | 41 | 1016.9 |
| 20260510161012 | 17 | 96 | 4.8 | 16.1 | 0.00 | 0.00 | 0.00 | 40 | 1016.8 |
| 20260510160513 | 18 | 116 | 3.2 | 16.1 | 0.00 | 0.00 | 0.00 | 39 | 1016.8 |
| 20260510160029 | 18 | 70 | 6.4 | 16.1 | 0.00 | 0.00 | 0.00 | 36 | 1016.7 |
| 20260510155511 | 18 | 58 | 3.2 | 14.5 | 0.00 | 0.00 | 0.00 | 42 | 1016.7 |
| 20260510155011 | 17 | 101 | 4.8 | 14.5 | 0.00 | 0.00 | 0.00 | 40 | 1016.7 |
| 20260510154531 | 17 | 322 | 4.8 | 11.3 | 0.00 | 0.00 | 0.00 | 44 | 1016.6 |
| 20260510154011 | 17 | 155 | 3.2 | 11.3 | 0.00 | 0.00 | 0.00 | 43 | 1016.5 |
| 20260510153511 | 17 | 3 | 3.2 | 16.1 | 0.00 | 0.00 | 0.00 | 45 | 1016.6 |
| 20260510153034 | 17 | 332 | 6.4 | 16.1 | 0.00 | 0.00 | 0.00 | 42 | 1016.5 |
| 20260510152513 | 17 | 68 | 8.0 | 16.1 | 0.00 | 0.00 | 0.00 | 42 | 1016.4 |
| 20260510152009 | 17 | 291 | 1.6 | 9.7 | 0.00 | 0.00 | 0.00 | 45 | 1016.3 |
| 20260510151533 | 17 | 297 | 4.8 | 9.7 | 0.00 | 0.00 | 0.00 | 43 | 1016.2 |
| 20260510151010 | 17 | 0 | 3.2 | 9.7 | 0.00 | 0.00 | 0.00 | 44 | 1016.1 |
| 20260510150514 | 17 | 306 | 3.2 | 9.7 | 0.00 | 0.00 | 0.00 | 45 | 1016.1 |
| 20260510150037 | 17 | 105 | 3.2 | 12.9 | 0.00 | 0.00 | 0.00 | 44 | 1016.1 |
| 20260510145508 | 16 | 0 | 0.0 | 12.9 | 0.00 | 0.00 | 0.00 | 47 | 1016.0 |
| 20260510145011 | 16 | 297 | 1.6 | 12.9 | 0.00 | 0.00 | 0.00 | 47 | 1016.0 |
| 20260510144538 | 16 | 47 | 3.2 | 12.9 | 0.00 | 0.00 | 0.00 | 46 | 1015.9 |
| 20260510144012 | 16 | 110 | 1.6 | 8.0 | 0.00 | 0.00 | 0.00 | 50 | 1015.9 |
| 20260510143513 | 16 | 131 | 0.0 | 6.4 | 0.00 | 0.00 | 0.00 | 48 | 1015.7 |
| 20260510143037 | 16 | 100 | 0.0 | 12.9 | 0.00 | 0.00 | 0.00 | 48 | 1015.6 |
| 20260510142513 | 15 | 33 | 1.6 | 12.9 | 0.00 | 0.00 | 0.00 | 48 | 1015.5 |
| 20260510142012 | 15 | 81 | 3.2 | 12.9 | 0.00 | 0.00 | 0.00 | 51 | 1015.5 |
| 20260510141529 | 15 | 347 | 3.2 | 8.0 | 0.00 | 0.00 | 0.00 | 51 | 1015.4 |
| 20260510141012 | 15 | 98 | 1.6 | 8.0 | 0.00 | 0.00 | 0.00 | 52 | 1015.5 |
| 20260510140509 | 15 | 82 | 1.6 | 8.0 | 0.00 | 0.00 | 0.00 | 51 | 1015.5 |
| 20260510140033 | 15 | 77 | 1.6 | 9.7 | 0.00 | 0.00 | 0.00 | 51 | 1015.4 |
| 20260510135509 | 15 | 97 | 3.2 | 9.7 | 0.00 | 0.00 | 0.00 | 52 | 1015.3 |
| 20260510135011 | 14 | 331 | 3.2 | 11.3 | 0.00 | 0.00 | 0.00 | 51 | 1015.4 |
| 20260510134530 | 14 | 113 | 3.2 | 11.3 | 0.00 | 0.00 | 0.00 | 53 | 1015.4 |
| 20260510134011 | 14 | 101 | 6.4 | 9.7 | 0.00 | 0.00 | 0.00 | 54 | 1015.3 |
| 20260510133511 | 13 | 114 | 1.6 | 8.0 | 0.00 | 0.00 | 0.00 | 55 | 1015.2 |
| 20260510133029 | 13 | 75 | 1.6 | 8.0 | 0.00 | 0.00 | 0.00 | 55 | 1015.3 |
| 20260510132513 | 13 | 0 | 0.0 | 8.0 | 0.00 | 0.00 | 0.00 | 57 | 1015.1 |
| 20260510132016 | 13 | 0 | 1.6 | 8.0 | 0.00 | 0.00 | 0.00 | 56 | 1015.1 |
| 20260510131530 | 13 | 0 | 0.0 | 8.0 | 0.00 | 0.00 | 0.00 | 57 | 1015.1 |
| 20260510131012 | 13 | 77 | 1.6 | 8.0 | 0.00 | 0.00 | 0.00 | 58 | 1015.0 |
| 20260510130512 | 13 | 103 | 3.2 | 8.0 | 0.00 | 0.00 | 0.00 | 58 | 1015.0 |
| 20260510130034 | 13 | 108 | 1.6 | 6.4 | 0.00 | 0.00 | 0.00 | 59 | 1015.0 |
| 20260510125511 | 13 | 70 | 1.6 | 6.4 | 0.00 | 0.05 | 0.00 | 58 | 1014.9 |
| 20260510125010 | 13 | 0 | 0.0 | 4.8 | 0.00 | 0.05 | 0.00 | 63 | 1015.0 |
| 20260510124532 | 13 | 0 | 0.0 | 4.8 | 0.00 | 0.05 | 0.00 | 62 | 1014.9 |
| 20260510124011 | 13 | 0 | 0.0 | 4.8 | 0.00 | 0.05 | 0.00 | 63 | 1014.8 |
| 20260510123511 | 13 | 0 | 0.0 | 9.7 | 0.00 | 0.05 | 0.00 | 64 | 1014.6 |
| 20260510123028 | 12 | 96 | 1.6 | 9.7 | 0.00 | 0.05 | 0.00 | 64 | 1014.4 |
| 20260510122511 | 12 | 111 | 0.0 | 6.4 | 0.00 | 0.05 | 0.00 | 65 | 1014.2 |
| 20260510122010 | 12 | 90 | 0.0 | 3.2 | 0.00 | 0.05 | 0.00 | 67 | 1014.2 |
| 20260510121530 | 12 | 0 | 0.0 | 0.0 | 0.00 | 0.05 | 0.00 | 69 | 1014.3 |
| 20260510121015 | 12 | 0 | 0.0 | 0.0 | 0.00 | 0.05 | 0.00 | 69 | 1014.3 |
| 20260510120513 | 12 | 0 | 0.0 | 1.6 | 0.00 | 0.05 | 0.00 | 69 | 1014.3 |
| 20260510120028 | 12 | 0 | 0.0 | 3.2 | 0.00 | 0.05 | 0.00 | 69 | 1014.2 |
| 20260510115510 | 12 | 0 | 0.0 | 3.2 | 0.00 | 0.05 | 0.00 | 68 | 1014.0 |
| 20260510115013 | 12 | 33 | 0.0 | 6.4 | 0.00 | 0.05 | 0.00 | 67 | 1014.0 |
| 20260510114533 | 12 | 0 | 0.0 | 6.4 | 0.00 | 0.05 | 0.00 | 67 | 1013.9 |
| 20260510114010 | 12 | 143 | 1.6 | 6.4 | 0.00 | 0.05 | 0.00 | 67 | 1013.8 |
| 20260510113510 | 12 | 110 | 1.6 | 8.0 | 0.00 | 0.05 | 0.00 | 68 | 1013.7 |
| 20260510113027 | 12 | 0 | 1.6 | 8.0 | 0.00 | 0.05 | 0.00 | 68 | 1013.8 |
| 20260510112514 | 12 | 346 | 0.0 | 8.0 | 0.00 | 0.05 | 0.00 | 70 | 1013.8 |
| 20260510112013 | 13 | 341 | 0.0 | 8.0 | 0.00 | 0.05 | 0.00 | 69 | 1013.6 |
| 20260510111530 | 13 | 14 | 3.2 | 8.0 | 0.00 | 0.05 | 0.00 | 68 | 1013.5 |
| 20260510111011 | 13 | 333 | 1.6 | 6.4 | 0.00 | 0.05 | 0.00 | 69 | 1013.4 |
| 20260510110511 | 13 | 0 | 0.0 | 3.2 | 0.00 | 0.05 | 0.00 | 68 | 1013.4 |
| 20260510110030 | 13 | 0 | 0.0 | 8.0 | 0.00 | 0.05 | 0.00 | 68 | 1013.3 |
| 20260510105510 | 13 | 0 | 0.0 | 8.0 | 0.00 | 0.20 | 0.00 | 67 | 1013.2 |
| 20260510105013 | 13 | 0 | 1.6 | 4.8 | 0.00 | 0.20 | 0.00 | 67 | 1013.2 |
| 20260510104529 | 13 | 0 | 0.0 | 6.4 | 0.00 | 0.20 | 0.00 | 67 | 1013.3 |
| 20260510104011 | 13 | 0 | 0.0 | 6.4 | 0.00 | 0.20 | 0.00 | 68 | 1013.1 |
| 20260510103512 | 13 | 0 | 0.0 | 6.4 | 0.00 | 0.20 | 0.00 | 67 | 1012.8 |
| 20260510103029 | 13 | 268 | 1.6 | 6.4 | 0.00 | 0.20 | 0.00 | 67 | 1012.5 |
| 20260510102510 | 13 | 0 | 1.6 | 8.0 | 0.00 | 0.20 | 0.00 | 67 | 1012.4 |
| 20260510102011 | 13 | 309 | 1.6 | 8.0 | 0.00 | 0.20 | 0.00 | 68 | 1012.5 |
| 20260510101528 | 13 | 0 | 0.0 | 8.0 | 0.00 | 0.20 | 0.00 | 68 | 1012.2 |
| 20260510101012 | 13 | 0 | 0.0 | 3.2 | 0.00 | 0.20 | 0.00 | 69 | 1012.1 |
| 20260510100512 | 13 | 0 | 0.0 | 3.2 | 0.00 | 0.20 | 0.00 | 69 | 1011.9 |
| 20260510100041 | 13 | 0 | 0.0 | 6.4 | 0.00 | 0.20 | 0.00 | 69 | 1011.8 |
| 20260510095511 | 13 | 295 | 0.0 | 6.4 | 0.00 | 0.30 | 0.00 | 70 | 1011.8 |
| 20260510095012 | 13 | 299 | 0.0 | 6.4 | 0.00 | 0.30 | 0.00 | 70 | 1011.8 |
| 20260510094546 | 13 | 0 | 0.0 | 6.4 | 0.00 | 0.30 | 0.00 | 70 | 1011.8 |
| 20260510094009 | 13 | 0 | 1.6 | 8.0 | 0.00 | 0.30 | 0.00 | 70 | 1011.8 |
| 20260510093513 | 13 | 0 | 1.6 | 8.0 | 0.00 | 0.30 | 0.00 | 70 | 1011.7 |
| 20260510093028 | 14 | 283 | 1.6 | 8.0 | 0.00 | 0.30 | 0.00 | 71 | 1011.7 |
| 20260510092513 | 14 | 293 | 1.6 | 8.0 | 0.00 | 0.30 | 0.00 | 71 | 1011.5 |
| 20260510092012 | 14 | 305 | 3.2 | 8.0 | 0.00 | 0.30 | 0.00 | 71 | 1011.4 |
| 20260510091531 | 14 | 274 | 3.2 | 8.0 | 0.00 | 0.30 | 0.00 | 71 | 1011.2 |
| 20260510091012 | 14 | 306 | 3.2 | 6.4 | 0.00 | 0.30 | 0.00 | 71 | 1011.1 |
| 20260510090512 | 14 | 288 | 0.0 | 12.9 | 0.00 | 0.30 | 0.00 | 71 | 1010.9 |
| 20260510090037 | 14 | 266 | 4.8 | 12.9 | 0.00 | 0.30 | 0.00 | 71 | 1010.9 |
| 20260510085512 | 15 | 290 | 1.6 | 6.4 | 0.00 | 0.46 | 0.00 | 72 | 1010.8 |
| 20260510085014 | 15 | 283 | 1.6 | 6.4 | 0.00 | 0.46 | 0.00 | 72 | 1010.6 |
| 20260510084528 | 15 | 0 | 0.0 | 11.3 | 0.00 | 0.46 | 0.00 | 73 | 1010.6 |
| 20260510084011 | 15 | 39 | 1.6 | 11.3 | 0.00 | 0.46 | 0.00 | 73 | 1010.4 |
| 20260510083512 | 15 | 0 | 0.0 | 6.4 | 0.00 | 0.46 | 0.00 | 73 | 1010.3 |
| 20260510083031 | 15 | 0 | 1.6 | 9.7 | 0.00 | 0.46 | 0.00 | 73 | 1010.1 |
| 20260510082511 | 15 | 0 | 0.0 | 9.7 | 0.00 | 0.46 | 0.00 | 73 | 1010.1 |
| 20260510082011 | 15 | 283 | 3.2 | 8.0 | 0.00 | 0.46 | 0.00 | 73 | 1010.1 |
| 20260510081543 | 15 | 0 | 3.2 | 8.0 | 0.00 | 0.46 | 0.00 | 73 | 1009.9 |
| 20260510081015 | 15 | 283 | 1.6 | 6.4 | 0.00 | 0.46 | 0.00 | 73 | 1009.9 |
| 20260510080510 | 15 | 283 | 1.6 | 9.7 | 0.00 | 0.46 | 0.00 | 72 | 1009.8 |
| 20260510080031 | 15 | 256 | 1.6 | 9.7 | 0.00 | 0.46 | 0.00 | 72 | 1009.7 |
| 20260510075512 | 15 | 299 | 4.8 | 9.7 | 0.00 | 0.71 | 0.00 | 72 | 1009.9 |
| 20260510075012 | 15 | 308 | 3.2 | 9.7 | 0.00 | 0.71 | 0.00 | 72 | 1009.7 |
| 20260510074530 | 15 | 285 | 4.8 | 9.7 | 0.00 | 0.71 | 0.00 | 72 | 1009.8 |
| 20260510074012 | 15 | 311 | 1.6 | 8.0 | 0.00 | 0.71 | 0.00 | 72 | 1009.6 |
| 20260510073509 | 15 | 293 | 3.2 | 8.0 | 0.00 | 0.71 | 0.00 | 71 | 1009.7 |
| 20260510073028 | 16 | 305 | 3.2 | 8.0 | 0.00 | 0.71 | 0.00 | 71 | 1009.9 |
| 20260510072510 | 16 | 296 | 3.2 | 8.0 | 0.00 | 0.71 | 0.00 | 71 | 1009.9 |
| 20260510072012 | 16 | 282 | 1.6 | 6.4 | 0.00 | 0.71 | 0.00 | 71 | 1010.0 |
| 20260510071536 | 16 | 245 | 1.6 | 6.4 | 0.00 | 0.71 | 0.00 | 70 | 1010.0 |
| 20260510071012 | 16 | 258 | 1.6 | 4.8 | 0.00 | 0.71 | 0.00 | 70 | 1009.9 |
| 20260510070511 | 16 | 245 | 0.0 | 8.0 | 0.00 | 0.71 | 0.00 | 69 | 1009.9 |
| 20260510070037 | 16 | 236 | 1.6 | 8.0 | 0.00 | 0.71 | 0.00 | 69 | 1009.8 |
| 20260510065512 | 16 | 287 | 3.2 | 12.9 | 0.00 | 0.79 | 0.00 | 68 | 1009.7 |
| 20260510065016 | 16 | 246 | 3.2 | 12.9 | 0.00 | 0.79 | 0.00 | 68 | 1009.8 |
| 20260510064528 | 16 | 255 | 3.2 | 11.3 | 0.00 | 0.79 | 0.00 | 68 | 1009.9 |
| 20260510064012 | 16 | 238 | 3.2 | 11.3 | 0.00 | 0.79 | 0.00 | 68 | 1010.0 |
| 20260510063512 | 16 | 307 | 1.6 | 3.2 | 0.00 | 0.79 | 0.00 | 69 | 1009.8 |
| 20260510063035 | 16 | 240 | 0.0 | 4.8 | 0.00 | 0.79 | 0.00 | 69 | 1009.8 |
| 20260510062510 | 16 | 247 | 0.0 | 4.8 | 0.00 | 0.79 | 0.00 | 68 | 1009.7 |
| 20260510062019 | 16 | 261 | 1.6 | 9.7 | 0.00 | 0.79 | 0.00 | 69 | 1009.8 |
| 20260510061530 | 16 | 288 | 3.2 | 14.5 | 0.00 | 0.79 | 0.00 | 68 | 1009.8 |
| 20260510061012 | 16 | 300 | 4.8 | 14.5 | 0.00 | 0.79 | 0.00 | 67 | 1010.0 |
| 20260510060512 | 16 | 276 | 3.2 | 12.9 | 0.00 | 0.79 | 0.00 | 69 | 1009.9 |
| 20260510060028 | 17 | 301 | 4.8 | 20.9 | 0.00 | 0.79 | 0.00 | 69 | 1010.0 |
| 20260510055511 | 17 | 302 | 8.0 | 20.9 | 0.00 | 0.81 | 0.00 | 68 | 1010.2 |
| 20260510055012 | 17 | 321 | 4.8 | 25.7 | 0.00 | 0.81 | 0.00 | 69 | 1010.2 |
| 20260510054530 | 17 | 224 | 3.2 | 25.7 | 0.00 | 0.81 | 0.00 | 71 | 1010.1 |
| 20260510054011 | 17 | 210 | 6.4 | 25.7 | 0.00 | 0.81 | 0.00 | 70 | 1010.2 |
| 20260510053511 | 16 | 229 | 1.6 | 9.7 | 0.00 | 0.81 | 0.00 | 70 | 1010.2 |
| 20260510053030 | 16 | 241 | 1.6 | 6.4 | 0.00 | 0.81 | 0.00 | 70 | 1010.1 |
| 20260510052512 | 16 | 0 | 0.0 | 0.0 | 0.00 | 0.81 | 0.00 | 70 | 1010.1 |
| 20260510052009 | 16 | 0 | 0.0 | 0.0 | 0.00 | 0.81 | 0.00 | 70 | 1010.0 |
| 20260510051528 | 16 | 0 | 0.0 | 0.0 | 0.00 | 0.81 | 0.00 | 69 | 1009.9 |
| 20260510051013 | 16 | 0 | 0.0 | 0.0 | 0.00 | 0.81 | 0.00 | 69 | 1009.7 |
| 20260510050516 | 16 | 0 | 0.0 | 0.0 | 0.00 | 0.81 | 0.00 | 69 | 1009.6 |
| 20260510050029 | 16 | 0 | 0.0 | 1.6 | 0.00 | 0.81 | 0.00 | 69 | 1009.5 |
| 20260510045516 | 16 | 0 | 0.0 | 1.6 | 0.00 | 0.84 | 0.00 | 69 | 1009.5 |
| 20260510045015 | 16 | 0 | 0.0 | 0.0 | 0.00 | 0.84 | 0.00 | 69 | 1009.6 |
| 20260510044533 | 16 | 0 | 0.0 | 3.2 | 0.00 | 0.84 | 0.00 | 69 | 1009.6 |
| 20260510044012 | 16 | 0 | 0.0 | 3.2 | 0.00 | 0.84 | 0.00 | 69 | 1009.4 |
| 20260510043509 | 16 | 0 | 0.0 | 3.2 | 0.00 | 0.84 | 0.00 | 70 | 1009.4 |
| 20260510043031 | 16 | 0 | 0.0 | 1.6 | 0.00 | 0.84 | 0.00 | 70 | 1009.3 |
| 20260510042511 | 16 | 243 | 0.0 | 3.2 | 0.00 | 0.84 | 0.00 | 70 | 1009.3 |
| 20260510042008 | 16 | 0 | 0.0 | 3.2 | 0.00 | 0.84 | 0.00 | 70 | 1009.3 |
| 20260510041528 | 16 | 0 | 0.0 | 1.6 | 0.00 | 0.84 | 0.00 | 70 | 1009.3 |
| 20260510041009 | 16 | 0 | 0.0 | 4.8 | 0.00 | 0.84 | 0.00 | 70 | 1009.3 |
| 20260510040512 | 16 | 235 | 0.0 | 4.8 | 0.00 | 0.84 | 0.00 | 69 | 1009.2 |
| 20260510040028 | 16 | 0 | 0.0 | 8.0 | 0.00 | 0.84 | 0.00 | 69 | 1009.2 |
| 20260510035511 | 16 | 203 | 0.0 | 8.0 | 0.00 | 0.84 | 0.84 | 69 | 1009.3 |
| 20260510035011 | 16 | 0 | 0.0 | 4.8 | 0.00 | 0.84 | 0.84 | 69 | 1009.2 |
| 20260510034557 | 16 | 0 | 0.0 | 4.8 | 0.00 | 0.84 | 0.84 | 69 | 1009.1 |
| 20260510034014 | 16 | 207 | 0.0 | 4.8 | 0.00 | 0.84 | 0.84 | 69 | 1009.2 |
| 20260510033512 | 16 | 0 | 0.0 | 1.6 | 0.00 | 0.84 | 0.84 | 69 | 1009.2 |
| 20260510033029 | 16 | 0 | 0.0 | 1.6 | 0.00 | 0.84 | 0.84 | 69 | 1009.0 |
| 20260510032512 | 16 | 0 | 0.0 | 0.0 | 0.00 | 0.84 | 0.84 | 69 | 1009.1 |
| 20260510032013 | 16 | 0 | 0.0 | 0.0 | 0.00 | 0.84 | 0.84 | 68 | 1008.9 |
| 20260510031531 | 16 | 0 | 0.0 | 1.6 | 0.00 | 0.84 | 0.84 | 68 | 1008.8 |
| 20260510031013 | 16 | 0 | 0.0 | 1.6 | 0.00 | 0.84 | 0.84 | 68 | 1008.8 |
| 20260510030508 | 16 | 0 | 0.0 | 3.2 | 0.00 | 0.84 | 0.84 | 68 | 1008.8 |
| 20260510030032 | 17 | 0 | 0.0 | 3.2 | 0.00 | 0.84 | 0.84 | 67 | 1008.7 |
| 20260510025510 | 17 | 0 | 0.0 | 0.0 | 0.00 | 0.84 | 0.84 | 67 | 1008.7 |
| 20260510025013 | 17 | 0 | 0.0 | 0.0 | 0.00 | 0.84 | 0.84 | 67 | 1008.8 |
| 20260510024529 | 17 | 0 | 0.0 | 0.0 | 0.00 | 0.84 | 0.84 | 67 | 1008.7 |
| 20260510024012 | 17 | 0 | 0.0 | 0.0 | 0.00 | 0.84 | 0.84 | 66 | 1008.7 |
| 20260510023512 | 17 | 0 | 0.0 | 1.6 | 0.00 | 0.84 | 0.84 | 66 | 1008.8 |
| 20260510023032 | 17 | 0 | 0.0 | 1.6 | 0.00 | 0.84 | 0.84 | 66 | 1008.7 |
| 20260510022511 | 17 | 0 | 0.0 | 3.2 | 0.00 | 0.84 | 0.84 | 66 | 1008.6 |
| 20260510022013 | 17 | 0 | 0.0 | 3.2 | 0.00 | 0.84 | 0.84 | 65 | 1008.6 |
| 20260510021533 | 17 | 0 | 0.0 | 0.0 | 0.00 | 0.84 | 0.84 | 65 | 1008.6 |
| 20260510021011 | 17 | 0 | 0.0 | 3.2 | 0.00 | 0.84 | 0.84 | 64 | 1008.5 |
| 20260510020518 | 17 | 0 | 0.0 | 3.2 | 0.00 | 0.84 | 0.84 | 64 | 1008.5 |
| 20260510020030 | 17 | 0 | 0.0 | 0.0 | 0.00 | 0.84 | 0.84 | 64 | 1008.4 |
| 20260510015512 | 17 | 0 | 0.0 | 0.0 | 0.00 | 0.84 | 0.84 | 64 | 1008.3 |
| 20260510015015 | 18 | 0 | 0.0 | 1.6 | 0.00 | 0.84 | 0.84 | 63 | 1008.2 |
| 20260510014536 | 18 | 0 | 0.0 | 1.6 | 0.00 | 0.84 | 0.84 | 62 | 1008.1 |
| 20260510014012 | 18 | 0 | 0.0 | 0.0 | 0.00 | 0.84 | 0.84 | 62 | 1008.0 |
| 20260510013513 | 18 | 0 | 0.0 | 0.0 | 0.00 | 0.84 | 0.84 | 62 | 1008.0 |
| 20260510013031 | 18 | 0 | 0.0 | 3.2 | 0.00 | 0.84 | 0.84 | 62 | 1008.0 |
| 20260510012512 | 18 | 0 | 0.0 | 3.2 | 0.00 | 0.84 | 0.84 | 61 | 1008.0 |
| 20260510012014 | 18 | 0 | 0.0 | 0.0 | 0.00 | 0.84 | 0.84 | 61 | 1007.9 |
| 20260510011539 | 18 | 0 | 0.0 | 0.0 | 0.00 | 0.84 | 0.84 | 60 | 1007.7 |
| 20260510011012 | 18 | 0 | 0.0 | 0.0 | 0.00 | 0.84 | 0.84 | 59 | 1007.8 |
| 20260510010512 | 19 | 0 | 0.0 | 0.0 | 0.00 | 0.84 | 0.84 | 58 | 1007.8 |
| 20260510010031 | 19 | 0 | 0.0 | 0.0 | 0.00 | 0.84 | 0.84 | 58 | 1007.7 |
| 20260510005510 | 19 | 0 | 0.0 | 0.0 | 0.00 | 0.86 | 0.84 | 58 | 1007.7 |
| 20260510005009 | 20 | 0 | 0.0 | 0.0 | 0.00 | 0.86 | 0.84 | 56 | 1007.6 |
| 20260510004530 | 20 | 0 | 0.0 | 0.0 | 0.00 | 0.86 | 0.84 | 56 | 1007.5 |
| 20260510004111 | 20 | 0 | 0.0 | 1.6 | 0.00 | 0.86 | 0.84 | 55 | 1007.4 |
| 20260510003510 | 20 | 0 | 0.0 | 3.2 | 0.00 | 0.86 | 0.84 | 54 | 1007.4 |
| 20260510003028 | 20 | 257 | 0.0 | 3.2 | 0.00 | 0.86 | 0.84 | 54 | 1007.4 |
| 20260510002511 | 20 | 247 | 0.0 | 4.8 | 0.00 | 0.86 | 0.84 | 53 | 1007.3 |
| 20260510002012 | 21 | 164 | 0.0 | 4.8 | 0.00 | 0.86 | 0.84 | 52 | 1007.2 |
| 20260510001532 | 21 | 244 | 1.6 | 4.8 | 0.00 | 0.86 | 0.84 | 51 | 1007.2 |
| 20260510001010 | 21 | 235 | 1.6 | 6.4 | 0.00 | 0.86 | 0.84 | 50 | 1007.1 |
| 20260510000513 | 21 | 0 | 1.6 | 11.3 | 0.00 | 0.86 | 0.84 | 49 | 1007.0 |
| 20260510000053 | 22 | 124 | 1.6 | 11.3 | 0.00 | 0.86 | 0.84 | 49 | 1007.0 |
| 20260509235517 | 22 | 238 | 1.6 | 11.3 | 0.00 | 0.86 | 0.84 | 49 | 1006.9 |
| 20260509235015 | 22 | 235 | 1.6 | 8.0 | 0.00 | 0.86 | 0.84 | 49 | 1006.9 |
| 20260509234546 | 22 | 125 | 3.2 | 11.3 | 0.00 | 0.86 | 0.84 | 48 | 1006.9 |
| 20260509234013 | 22 | 246 | 3.2 | 11.3 | 0.00 | 0.86 | 0.84 | 47 | 1006.8 |
| 20260509233515 | 22 | 243 | 1.6 | 9.7 | 0.00 | 0.86 | 0.84 | 47 | 1006.9 |
| 20260509233032 | 22 | 238 | 3.2 | 11.3 | 0.00 | 0.86 | 0.84 | 46 | 1006.8 |
| 20260509232514 | 22 | 147 | 1.6 | 11.3 | 0.00 | 0.86 | 0.84 | 46 | 1006.9 |
| 20260509232012 | 22 | 248 | 3.2 | 14.5 | 0.00 | 0.86 | 0.84 | 46 | 1006.8 |
| 20260509231530 | 22 | 146 | 3.2 | 14.5 | 0.00 | 0.86 | 0.84 | 45 | 1006.8 |
| 20260509231012 | 23 | 249 | 4.8 | 16.1 | 0.00 | 0.86 | 0.84 | 45 | 1006.8 |
| 20260509230512 | 23 | 239 | 3.2 | 16.1 | 0.00 | 0.86 | 0.84 | 45 | 1006.7 |
| 20260509230035 | 23 | 165 | 3.2 | 11.3 | 0.00 | 0.86 | 0.84 | 44 | 1006.7 |
| 20260509225513 | 23 | 239 | 3.2 | 11.3 | 0.00 | 0.86 | 0.84 | 44 | 1006.7 |
| 20260509225013 | 23 | 321 | 3.2 | 12.9 | 0.00 | 0.86 | 0.84 | 44 | 1006.7 |
| 20260509224532 | 23 | 181 | 3.2 | 14.5 | 0.00 | 0.86 | 0.84 | 43 | 1006.7 |
| 20260509224011 | 23 | 238 | 3.2 | 19.3 | 0.00 | 0.86 | 0.84 | 43 | 1006.6 |
| 20260509223512 | 23 | 238 | 3.2 | 19.3 | 0.00 | 0.86 | 0.84 | 43 | 1006.6 |
| 20260509223032 | 23 | 243 | 3.2 | 16.1 | 0.00 | 0.86 | 0.84 | 44 | 1006.6 |
| 20260509222512 | 23 | 236 | 1.6 | 14.5 | 0.00 | 0.86 | 0.84 | 45 | 1006.5 |
| 20260509222012 | 23 | 257 | 4.8 | 14.5 | 0.00 | 0.86 | 0.84 | 45 | 1006.5 |
| 20260509221531 | 23 | 191 | 4.8 | 14.5 | 0.00 | 0.86 | 0.84 | 45 | 1006.6 |
| 20260509221012 | 23 | 245 | 3.2 | 19.3 | 0.00 | 0.86 | 0.84 | 46 | 1006.6 |
| 20260509220511 | 23 | 163 | 4.8 | 19.3 | 0.00 | 0.86 | 0.84 | 47 | 1006.6 |
| 20260509220030 | 23 | 259 | 4.8 | 19.3 | 0.00 | 0.86 | 0.84 | 47 | 1006.5 |
| 20260509215511 | 23 | 153 | 3.2 | 17.7 | 0.00 | 0.86 | 0.84 | 47 | 1006.7 |
| 20260509215015 | 23 | 255 | 4.8 | 17.7 | 0.00 | 0.86 | 0.84 | 47 | 1006.7 |
| 20260509214531 | 23 | 129 | 3.2 | 14.5 | 0.00 | 0.86 | 0.84 | 48 | 1006.7 |
| 20260509214013 | 23 | 150 | 3.2 | 17.7 | 0.00 | 0.86 | 0.84 | 47 | 1006.7 |
| 20260509213512 | 24 | 65 | 4.8 | 17.7 | 0.00 | 0.86 | 0.84 | 46 | 1006.9 |
| 20260509213038 | 23 | 245 | 1.6 | 20.9 | 0.00 | 0.86 | 0.84 | 48 | 1006.8 |
| 20260509212511 | 23 | 240 | 4.8 | 20.9 | 0.00 | 0.86 | 0.84 | 48 | 1006.8 |
| 20260509212012 | 23 | 214 | 4.8 | 20.9 | 0.00 | 0.86 | 0.84 | 47 | 1006.8 |
| 20260509211529 | 23 | 254 | 3.2 | 20.9 | 0.00 | 0.86 | 0.84 | 47 | 1006.9 |
| 20260509211012 | 23 | 192 | 6.4 | 22.5 | 0.00 | 0.86 | 0.84 | 46 | 1007.0 |
| 20260509210510 | 23 | 290 | 4.8 | 22.5 | 0.00 | 0.86 | 0.84 | 47 | 1006.9 |
| 20260509210039 | 23 | 136 | 6.4 | 17.7 | 0.00 | 0.86 | 0.84 | 46 | 1006.8 |
| 20260509205512 | 23 | 129 | 4.8 | 14.5 | 0.00 | 0.86 | 0.84 | 47 | 1006.8 |
| 20260509205012 | 23 | 205 | 4.8 | 16.1 | 0.00 | 0.86 | 0.84 | 46 | 1007.0 |
| 20260509204538 | 23 | 169 | 1.6 | 20.9 | 0.00 | 0.86 | 0.84 | 48 | 1006.9 |
| 20260509204012 | 23 | 234 | 3.2 | 20.9 | 0.00 | 0.86 | 0.84 | 48 | 1006.9 |